WAXY62 KORD-KCMH

Flight info

Callsign WAXY62
Flight time 0h 55m
Altitude 27000
Route MOBLE ADIME SEWTO FWA BRYEN DUBLN1
Aircraft C700/M-SBDGHM1RWXY/LB2

Departure

Time 2026-05-08 23:43
Airport Chicago O'Hare International Airport (KORD)

Arrival

Time 2026-05-09 00:38
Airport John Glenn Columbus International Airport (KCMH)
Time Latitude Longitude Altitude Speed Heading
2026-05-08 23:21 41.97363 -87.88795 665 ft 0 kts
2026-05-08 23:30 41.97358 -87.88795 665 ft 3 kts
2026-05-08 23:31 41.97338 -87.88795 665 ft 3 kts
2026-05-08 23:31 41.97317 -87.88795 665 ft 3 kts
2026-05-08 23:31 41.97298 -87.88794 665 ft 2 kts 331°
2026-05-08 23:31 41.97284 -87.88776 665 ft 3 kts 298°
2026-05-08 23:32 41.97281 -87.88762 665 ft 0 kts 272°
2026-05-08 23:33 41.97281 -87.88768 665 ft 1 kts 271°
2026-05-08 23:33 41.97269 -87.88807 665 ft 7 kts 261°
2026-05-08 23:33 41.97259 -87.88884 665 ft 10 kts 259°
2026-05-08 23:33 41.97258 -87.88941 665 ft 0 kts 287°
2026-05-08 23:34 41.97261 -87.88955 665 ft 11 kts 287°
2026-05-08 23:34 41.97282 -87.89076 665 ft 14 kts 253°
2026-05-08 23:34 41.97247 -87.89103 665 ft 0 kts 173°
2026-05-08 23:35 41.97234 -87.89101 665 ft 9 kts 173°
2026-05-08 23:36 41.97168 -87.89075 664 ft 11 kts 162°
2026-05-08 23:36 41.97082 -87.89070 664 ft 14 kts 181°
2026-05-08 23:36 41.97041 -87.89155 663 ft 14 kts 281°
2026-05-08 23:36 41.97045 -87.89289 664 ft 15 kts 270°
2026-05-08 23:37 41.97046 -87.89440 664 ft 17 kts 270°
2026-05-08 23:37 41.97042 -87.89602 665 ft 18 kts 270°
2026-05-08 23:37 41.97046 -87.89779 665 ft 20 kts 272°
2026-05-08 23:37 41.97045 -87.89972 665 ft 22 kts 270°
2026-05-08 23:38 41.97043 -87.90183 664 ft 24 kts 270°
2026-05-08 23:38 41.97042 -87.90332 664 ft 16 kts 269°
2026-05-08 23:38 41.97044 -87.90494 664 ft 19 kts 271°
2026-05-08 23:38 41.97044 -87.90677 664 ft 21 kts 269°
2026-05-08 23:39 41.97044 -87.90849 664 ft 19 kts 271°
2026-05-08 23:39 41.97044 -87.91037 665 ft 21 kts 269°
2026-05-08 23:39 41.97042 -87.91242 665 ft 23 kts 270°
2026-05-08 23:39 41.97040 -87.91457 666 ft 24 kts 271°
2026-05-08 23:40 41.97041 -87.91687 666 ft 26 kts 268°
2026-05-08 23:40 41.97041 -87.91918 666 ft 18 kts 269°
2026-05-08 23:40 41.97029 -87.92053 666 ft 15 kts 239°
2026-05-08 23:40 41.97004 -87.92078 666 ft 0 kts 201°
2026-05-08 23:41 41.96988 -87.92086 666 ft 10 kts 200°
2026-05-08 23:41 41.96918 -87.92079 667 ft 10 kts 149°
2026-05-08 23:42 41.96902 -87.92033 667 ft 0 kts 94°
2026-05-08 23:42 41.96900 -87.91972 667 ft 39 kts 88°
2026-05-08 23:42 41.96903 -87.91087 668 ft 147 kts 91°
2026-05-08 23:42 41.96768 -87.89412 1146 ft 215 kts 111°
2026-05-08 23:43 41.96081 -87.87220 1759 ft 295 kts 105°
2026-05-08 23:43 41.95641 -87.84349 2365 ft 306 kts 109°
2026-05-08 23:43 41.94555 -87.82049 2914 ft 284 kts 139°
2026-05-08 23:43 41.92929 -87.80836 3429 ft 268 kts 166°
2026-05-08 23:44 41.91173 -87.80382 3959 ft 245 kts 174°
2026-05-08 23:44 41.89362 -87.80074 4509 ft 261 kts 175°
2026-05-08 23:44 41.87526 -87.79785 4989 ft 274 kts 176°
2026-05-08 23:44 41.85669 -87.79232 4986 ft 274 kts 156°
2026-05-08 23:45 41.84349 -87.77459 5507 ft 285 kts 120°
2026-05-08 23:45 41.83928 -87.74917 6131 ft 281 kts 86°
2026-05-08 23:45 41.84462 -87.72348 6744 ft 284 kts 66°
2026-05-08 23:45 41.85283 -87.69886 7379 ft 292 kts 65°
2026-05-08 23:46 41.85950 -87.67307 8021 ft 298 kts 74°
2026-05-08 23:46 41.86322 -87.64567 8669 ft 301 kts 81°
2026-05-08 23:46 41.86612 -87.61782 9327 ft 305 kts 79°
2026-05-08 23:46 41.87005 -87.58968 9975 ft 310 kts 76°
2026-05-08 23:47 41.87465 -87.56117 10588 ft 314 kts 76°
2026-05-08 23:47 41.87918 -87.53112 11233 ft 328 kts 77°
2026-05-08 23:47 41.88332 -87.50100 11857 ft 338 kts 77°
2026-05-08 23:47 41.88764 -87.47037 12507 ft 335 kts 77°
2026-05-08 23:48 41.89219 -87.43925 13173 ft 337 kts 77°
2026-05-08 23:48 41.89676 -87.40779 13825 ft 349 kts 77°
2026-05-08 23:48 41.90151 -87.37472 14433 ft 382 kts 77°
2026-05-08 23:48 41.90651 -87.33953 15061 ft 384 kts 77°
2026-05-08 23:49 41.91161 -87.30352 15697 ft 393 kts 77°
2026-05-08 23:49 41.91678 -87.26726 16346 ft 402 kts 77°
2026-05-08 23:49 41.92205 -87.23027 17008 ft 403 kts 77°
2026-05-08 23:49 41.92734 -87.19289 17687 ft 412 kts 77°
2026-05-08 23:50 41.93269 -87.15498 18334 ft 414 kts 77°
2026-05-08 23:50 41.93809 -87.11659 18935 ft 422 kts 77°
2026-05-08 23:50 41.94357 -87.07758 19548 ft 427 kts 77°
2026-05-08 23:50 41.94617 -87.03759 20158 ft 435 kts 88°
2026-05-08 23:51 41.94625 -87.01056 20580 ft 441 kts 88°
2026-05-08 23:51 41.94682 -86.96914 21225 ft 445 kts 87°
2026-05-08 23:51 41.94782 -86.92731 21887 ft 451 kts 87°
2026-05-08 23:51 41.94857 -86.88469 22547 ft 461 kts 88°
2026-05-08 23:52 41.94897 -86.84139 23252 ft 466 kts 88°
2026-05-08 23:52 41.94949 -86.79772 23860 ft 471 kts 88°
2026-05-08 23:52 41.95025 -86.75328 24448 ft 481 kts 88°
2026-05-08 23:52 41.95095 -86.70804 25051 ft 487 kts 89°
2026-05-08 23:53 41.95146 -86.66224 25665 ft 492 kts 89°
2026-05-08 23:53 41.95198 -86.61580 26294 ft 503 kts 89°
2026-05-08 23:53 41.95262 -86.56843 26930 ft 510 kts 89°
2026-05-08 23:53 41.95324 -86.52016 27030 ft 517 kts 89°
2026-05-08 23:54 41.95375 -86.47290 27025 ft 512 kts 90°
2026-05-08 23:54 41.95423 -86.42480 27031 ft 515 kts 89°
2026-05-08 23:54 41.95477 -86.37684 27023 ft 512 kts 89°
2026-05-08 23:55 41.95574 -86.28082 27031 ft 514 kts 90°
2026-05-08 23:55 41.95406 -86.23300 27026 ft 510 kts 99°
2026-05-08 23:55 41.94699 -86.18633 27024 ft 510 kts 109°
2026-05-08 23:55 41.93517 -86.14163 27017 ft 505 kts 116°
2026-05-08 23:56 41.92209 -86.09791 27018 ft 504 kts 116°
2026-05-08 23:56 41.90921 -86.05392 27024 ft 505 kts 116°
2026-05-08 23:56 41.89639 -86.00992 27018 ft 506 kts 116°
2026-05-08 23:56 41.88339 -85.96600 27021 ft 506 kts 116°
2026-05-08 23:57 41.87031 -85.92216 27019 ft 506 kts 116°
2026-05-08 23:57 41.85731 -85.87822 27020 ft 507 kts 116°
2026-05-08 23:57 41.84434 -85.83428 27010 ft 507 kts 116°
2026-05-08 23:57 41.83127 -85.79031 27019 ft 507 kts 116°
2026-05-08 23:58 41.81834 -85.74704 27012 ft 507 kts 116°
2026-05-08 23:58 41.80525 -85.70316 27024 ft 507 kts 116°
2026-05-08 23:58 41.79214 -85.65918 27017 ft 507 kts 116°
2026-05-08 23:58 41.77755 -85.61639 27026 ft 501 kts 124°
2026-05-08 23:59 41.75866 -85.57762 27030 ft 493 kts 134°
2026-05-08 23:59 41.73634 -85.54348 27025 ft 481 kts 143°
2026-05-08 23:59 41.71139 -85.51460 27024 ft 469 kts 152°
2026-05-08 23:59 41.68426 -85.49097 27019 ft 460 kts 160°
2026-05-09 00:00 41.65574 -85.47282 27022 ft 450 kts 168°
2026-05-09 00:00 41.62662 -85.45973 27023 ft 444 kts 173°
2026-05-09 00:00 41.59705 -85.44748 27025 ft 445 kts 173°
2026-05-09 00:00 41.56761 -85.43483 27029 ft 443 kts 172°
2026-05-09 00:01 41.53839 -85.42227 27028 ft 440 kts 173°
2026-05-09 00:01 41.50917 -85.41002 27033 ft 441 kts 173°
2026-05-09 00:01 41.47970 -85.39779 26843 ft 443 kts 172°
2026-05-09 00:01 41.45048 -85.38535 26631 ft 440 kts 172°
2026-05-09 00:02 41.42119 -85.37292 26377 ft 437 kts 172°
2026-05-09 00:02 41.39280 -85.36087 26119 ft 423 kts 173°
2026-05-09 00:02 41.36462 -85.34916 25863 ft 425 kts 173°
2026-05-09 00:02 41.33651 -85.33745 25663 ft 421 kts 172°
2026-05-09 00:03 41.30854 -85.32563 25510 ft 423 kts 172°
2026-05-09 00:03 41.28042 -85.31380 25371 ft 422 kts 172°
2026-05-09 00:03 41.25255 -85.30210 25222 ft 419 kts 172°
2026-05-09 00:03 41.22461 -85.29047 25074 ft 422 kts 172°
2026-05-09 00:04 41.19666 -85.27878 24921 ft 419 kts 172°
2026-05-09 00:04 41.16890 -85.26710 24773 ft 418 kts 172°
2026-05-09 00:04 41.14107 -85.25552 24626 ft 419 kts 172°
2026-05-09 00:04 41.11341 -85.24393 24480 ft 415 kts 172°
2026-05-09 00:05 41.08589 -85.23234 24340 ft 416 kts 172°
2026-05-09 00:05 41.05828 -85.22054 24190 ft 418 kts 169°
2026-05-09 00:05 41.03173 -85.20394 24047 ft 426 kts 159°
2026-05-09 00:05 41.00709 -85.18231 23892 ft 436 kts 150°
2026-05-09 00:06 40.98437 -85.15515 23749 ft 444 kts 140°
2026-05-09 00:06 40.96478 -85.12335 23600 ft 447 kts 130°
2026-05-09 00:06 40.94889 -85.08757 23455 ft 455 kts 121°
2026-05-09 00:06 40.93664 -85.04878 23297 ft 456 kts 115°
2026-05-09 00:07 40.92493 -85.00978 23125 ft 454 kts 116°
2026-05-09 00:07 40.91304 -84.97131 22967 ft 451 kts 116°
2026-05-09 00:07 40.90118 -84.93295 22875 ft 448 kts 116°
2026-05-09 00:07 40.88949 -84.89458 22887 ft 453 kts 116°
2026-05-09 00:08 40.87774 -84.85606 22881 ft 450 kts 116°
2026-05-09 00:08 40.86609 -84.81824 22885 ft 452 kts 116°
2026-05-09 00:08 40.85419 -84.77978 22882 ft 451 kts 116°
2026-05-09 00:08 40.84241 -84.74150 22882 ft 450 kts 116°
2026-05-09 00:09 40.83057 -84.70307 22854 ft 453 kts 116°
2026-05-09 00:09 40.81869 -84.66476 22625 ft 450 kts 116°
2026-05-09 00:09 40.80689 -84.62667 22301 ft 445 kts 116°
2026-05-09 00:09 40.79522 -84.58905 21980 ft 441 kts 116°
2026-05-09 00:10 40.78373 -84.55201 21661 ft 429 kts 116°
2026-05-09 00:10 40.77248 -84.51587 21341 ft 424 kts 116°
2026-05-09 00:10 40.76126 -84.47998 21033 ft 423 kts 116°
2026-05-09 00:10 40.75007 -84.44412 20723 ft 422 kts 116°
2026-05-09 00:11 40.73897 -84.40850 20423 ft 418 kts 116°
2026-05-09 00:11 40.72796 -84.37328 20121 ft 414 kts 116°
2026-05-09 00:11 40.71700 -84.33834 19830 ft 411 kts 116°
2026-05-09 00:11 40.70609 -84.30357 19531 ft 409 kts 115°
2026-05-09 00:12 40.69521 -84.26893 19247 ft 409 kts 115°
2026-05-09 00:12 40.68447 -84.23474 18964 ft 406 kts 115°
2026-05-09 00:12 40.67370 -84.20052 18676 ft 403 kts 115°
2026-05-09 00:12 40.66300 -84.16660 18394 ft 399 kts 115°
2026-05-09 00:13 40.65234 -84.13285 18106 ft 398 kts 115°
2026-05-09 00:13 40.64168 -84.09909 17776 ft 398 kts 115°
2026-05-09 00:13 40.63110 -84.06564 17452 ft 394 kts 115°
2026-05-09 00:13 40.62058 -84.03240 17134 ft 391 kts 115°
2026-05-09 00:14 40.61017 -83.99945 16820 ft 388 kts 115°
2026-05-09 00:14 40.59981 -83.96679 16507 ft 385 kts 115°
2026-05-09 00:14 40.58947 -83.93436 16200 ft 383 kts 115°
2026-05-09 00:14 40.57920 -83.90212 15891 ft 381 kts 115°
2026-05-09 00:15 40.56896 -83.87010 15592 ft 379 kts 115°
2026-05-09 00:15 40.55876 -83.83812 15287 ft 377 kts 115°
2026-05-09 00:15 40.54864 -83.80638 15000 ft 376 kts 115°
2026-05-09 00:15 40.53866 -83.77518 14710 ft 374 kts 115°
2026-05-09 00:16 40.52860 -83.74376 14421 ft 372 kts 115°
2026-05-09 00:16 40.51859 -83.71252 14133 ft 370 kts 115°
2026-05-09 00:16 40.50868 -83.68162 14007 ft 364 kts 115°
2026-05-09 00:16 40.49873 -83.65070 14006 ft 370 kts 115°
2026-05-09 00:17 40.48876 -83.61970 14009 ft 367 kts 115°
2026-05-09 00:17 40.47883 -83.58881 14009 ft 368 kts 115°
2026-05-09 00:17 40.46881 -83.55773 14006 ft 370 kts 115°
2026-05-09 00:17 40.45878 -83.52669 14007 ft 368 kts 115°
2026-05-09 00:18 40.44881 -83.49584 14003 ft 367 kts 116°
2026-05-09 00:18 40.43653 -83.46661 13993 ft 365 kts 129°
2026-05-09 00:18 40.42124 -83.43994 13996 ft 365 kts 130°
2026-05-09 00:18 40.40629 -83.41320 13991 ft 363 kts 129°
2026-05-09 00:19 40.39153 -83.38632 13996 ft 363 kts 129°
2026-05-09 00:19 40.37647 -83.35936 13681 ft 370 kts 130°
2026-05-09 00:19 40.36135 -83.33259 13099 ft 360 kts 130°
2026-05-09 00:19 40.34667 -83.30644 12517 ft 352 kts 130°
2026-05-09 00:20 40.33236 -83.28084 12192 ft 344 kts 130°
2026-05-09 00:20 40.31794 -83.25551 11932 ft 349 kts 133°
2026-05-09 00:20 40.30080 -83.23369 11663 ft 338 kts 147°
2026-05-09 00:20 40.28229 -83.21494 11412 ft 336 kts 148°
2026-05-09 00:21 40.26415 -83.19609 11144 ft 337 kts 147°
2026-05-09 00:21 40.24599 -83.17693 10822 ft 332 kts 147°
2026-05-09 00:21 40.22851 -83.15862 10490 ft 310 kts 148°
2026-05-09 00:21 40.21187 -83.14130 10148 ft 303 kts 147°
2026-05-09 00:22 40.19736 -83.12089 9684 ft 311 kts 131°
2026-05-09 00:22 40.18563 -83.09715 9175 ft 307 kts 127°
2026-05-09 00:22 40.17431 -83.07383 8672 ft 301 kts 128°
2026-05-09 00:22 40.16290 -83.05142 8176 ft 289 kts 131°
2026-05-09 00:23 40.15169 -83.03036 7691 ft 276 kts 131°
2026-05-09 00:23 40.14103 -83.01003 7199 ft 267 kts 131°
2026-05-09 00:23 40.13080 -82.99055 6737 ft 261 kts 131°
2026-05-09 00:23 40.12053 -82.97113 6260 ft 258 kts 131°
2026-05-09 00:24 40.11039 -82.95200 6002 ft 252 kts 132°
2026-05-09 00:24 40.09985 -82.93349 5996 ft 260 kts 131°
2026-05-09 00:24 40.09178 -82.91195 5993 ft 269 kts 113°
2026-05-09 00:24 40.08832 -82.88771 5995 ft 274 kts 98°
2026-05-09 00:25 40.08734 -82.86365 5992 ft 256 kts 97°
2026-05-09 00:25 40.08639 -82.84073 5994 ft 252 kts 96°
2026-05-09 00:25 40.08622 -82.81830 5994 ft 239 kts 94°
2026-05-09 00:25 40.08634 -82.79710 5993 ft 230 kts 94°
2026-05-09 00:26 40.08649 -82.77619 5994 ft 231 kts 94°
2026-05-09 00:26 40.08662 -82.75510 5990 ft 233 kts 94°
2026-05-09 00:26 40.08673 -82.73397 5993 ft 233 kts 94°
2026-05-09 00:26 40.08686 -82.71282 5990 ft 233 kts 94°
2026-05-09 00:27 40.08703 -82.69165 5992 ft 233 kts 94°
2026-05-09 00:27 40.08720 -82.67053 5986 ft 232 kts 93°
2026-05-09 00:27 40.08729 -82.64897 5644 ft 240 kts 93°
2026-05-09 00:27 40.08728 -82.62725 5287 ft 236 kts 93°
2026-05-09 00:28 40.08727 -82.60634 5132 ft 226 kts 94°
2026-05-09 00:28 40.08735 -82.58606 4996 ft 222 kts 93°
2026-05-09 00:28 40.08742 -82.56580 4984 ft 226 kts 93°
2026-05-09 00:28 40.08745 -82.54538 4984 ft 229 kts 93°
2026-05-09 00:29 40.08546 -82.52510 4975 ft 221 kts 118°
2026-05-09 00:29 40.07611 -82.51059 4982 ft 203 kts 157°
2026-05-09 00:29 40.06318 -82.50410 4987 ft 198 kts 171°
2026-05-09 00:29 40.04983 -82.49929 4891 ft 203 kts 172°
2026-05-09 00:30 40.03609 -82.49457 4522 ft 199 kts 172°
2026-05-09 00:30 40.02294 -82.49006 4266 ft 194 kts 172°
2026-05-09 00:30 40.00979 -82.48676 3991 ft 188 kts 189°
2026-05-09 00:30 39.99878 -82.49333 3984 ft 176 kts 229°
2026-05-09 00:31 39.99190 -82.50696 3989 ft 181 kts 241°
2026-05-09 00:31 39.98759 -82.52208 3987 ft 180 kts 253°
2026-05-09 00:31 39.98437 -82.53835 3769 ft 182 kts 257°
2026-05-09 00:31 39.98358 -82.55413 3539 ft 173 kts 269°
2026-05-09 00:32 39.98415 -82.57019 3291 ft 182 kts 270°
2026-05-09 00:32 39.98497 -82.58684 3024 ft 184 kts 272°
2026-05-09 00:32 39.98602 -82.60314 2997 ft 179 kts 271°
2026-05-09 00:32 39.98684 -82.61958 2999 ft 184 kts 272°
2026-05-09 00:33 39.98788 -82.63625 3005 ft 185 kts 272°
2026-05-09 00:33 39.98877 -82.65298 3004 ft 185 kts 272°
2026-05-09 00:33 39.98969 -82.66943 3001 ft 174 kts 272°
2026-05-09 00:33 39.99055 -82.68455 2994 ft 163 kts 272°
2026-05-09 00:34 39.99138 -82.69914 2995 ft 167 kts 272°
2026-05-09 00:34 39.99226 -82.71482 2997 ft 172 kts 272°
2026-05-09 00:34 39.99310 -82.72988 2998 ft 171 kts 272°
2026-05-09 00:34 39.99404 -82.74564 2874 ft 171 kts 273°
2026-05-09 00:35 39.99493 -82.76089 2629 ft 163 kts 273°
2026-05-09 00:35 39.99570 -82.77517 2415 ft 154 kts 272°
2026-05-09 00:35 39.99648 -82.78898 2207 ft 152 kts 273°
2026-05-09 00:35 39.99724 -82.80242 2023 ft 153 kts 273°
2026-05-09 00:36 39.99800 -82.81585 1812 ft 139 kts 273°
2026-05-09 00:36 39.99848 -82.82410 1686 ft 138 kts 273°
2026-05-09 00:36 39.99918 -82.83664 1493 ft 138 kts 273°
2026-05-09 00:36 39.99984 -82.84902 1326 ft 137 kts 270°
2026-05-09 00:37 40.00005 -82.86167 1261 ft 141 kts 270°
2026-05-09 00:37 40.00129 -82.87459 1046 ft 144 kts 277°
2026-05-09 00:37 40.00196 -82.88738 830 ft 133 kts 271°
2026-05-09 00:37 40.00240 -82.89747 813 ft 88 kts 281°
2026-05-09 00:38 40.00283 -82.90098 819 ft 5 kts 278°
2026-05-09 00:38 40.00292 -82.90229 822 ft 21 kts 273°
2026-05-09 00:38 40.00248 -82.90393 824 ft 21 kts 205°